Regional Weather Roundup
Issued by NWS

Home | Current Version | Previous Version | Text Only | Print | Product List | Glossary Off
Versions: 1 2 3 4 5 6 7 8 9 10 11 12 13 14 15 16 17 18 19 20 21 22 23 24 25 26 27 28 29 30 31 32 33 34 35 36 37 38 39 40 41 42 43 44 45 46 47 48 49 50

000
ASUS43 KLSX 270407
RWRMO

WEATHER SUMMARY FOR MISSOURI
NATIONAL WEATHER SERVICE SPRINGFIELD MO
1100 PM CDT MON JUN 26 2017

NOTE: "FAIR" INDICATES FEW OR NO CLOUDS BELOW 12,000 FEET WITH NO
       SIGNIFICANT WEATHER AND/OR OBSTRUCTIONS TO VISIBILITY.
       CURRENT SKY AND/OR WEATHER CONDITIONS ARE NOT AVAILABLE FOR
       CHILLICOTHE AND FARMINGTON.

MOZ001>031-035>038-043-044-053-054-270500-
...NORTHERN AND WESTERN MISSOURI...

CITY           SKY/WX    TMP DP  RH WIND       PRES   REMARKS
KANSAS CTY INT CLEAR     61  58  90 NE7       30.14R
KANSAS C DTWN  CLEAR     64  57  78 E5        30.12R
LEE`S SUMMIT   CLOUDY    61  59  93 SE6       30.13R
ST JOSEPH      CLEAR     58  58 100 CALM      30.14R
CHILLICOTHE      N/A     59  57  93 CALM      30.14R
KIRKSVILLE     CLEAR     57  55  93 W3        30.14R

$$
MOZ066>068-077>081-088>096-101>105-270500-
...SOUTHWEST MISSOURI...

CITY           SKY/WX    TMP DP  RH WIND       PRES   REMARKS
SPRINGFIELD    TSTM      62  60  93 N16       30.13R
JOPLIN         CLOUDY    69  61  75 MISG      30.12R
BRANSON        CLEAR     63  59  88 SE9       30.12S

$$
MOZ032>034-039>042-045>050-055>058-069>072-270500-
...CENTRAL MISSOURI...

CITY           SKY/WX    TMP DP  RH WIND       PRES   REMARKS
COLUMBIA       CLEAR     60  60 100 S5        30.13S
JEFFERSON CITY CLEAR     62  60  93 E3        30.13R
ROLLA          CLOUDY    59  59 100 SW5       30.13S
SEDALIA        MOCLDY    62  62 100 CALM      30.14R
WARRENSBURG    MOCLDY    61  59  94 S5        30.11F
OSAGE BEACH    CLOUDY    61  60  97 NE5       30.14R

$$
MOZ051-052-059>065-270500-
...EAST CENTRAL MISSOURI...

CITY           SKY/WX    TMP DP  RH WIND       PRES   REMARKS
ST LOUIS INTL  CLOUDY    66  55  67 W6        30.12S
SPIRIT OF STL  PTCLDY    61  57  87 CALM      30.11S
ST CHARLES     PTCLDY    60  55  83 CALM      30.11R

$$
MOZ072>076-082>087-097>100-106>115-270500-
...SOUTH CENTRAL AND SOUTHEAST MISSOURI...

CITY           SKY/WX    TMP DP  RH WIND       PRES   REMARKS
CAPE GIRARDEAU CLOUDY    63  60  90 CALM      30.11R
FARMINGTON     CLOUDY    62  56  80 CALM      30.14S
POPLAR BLUFF   CLOUDY    65  64  97 N3        30.11R
WEST PLAINS    MOCLDY    62  58  86 SE5       30.13F

$$




USA.gov is the U.S. government's official web portal to all federal, state and local government web resources and services.